Powrót do katalogu

FREGAT R/B

LostMEO
NORAD 49811·ROCKET BODY·🇷🇺 Russia

Wystrzelony Dec 5, 2021 z Guiana Space Centre

Loading…

Następne Przeloty (najbliższe 24 godziny)

TLE

NieaktualneSource: Space-Track

Epoka: Jul 30, 2026, 20:49 UTC

1 49811U 21116C   26211.86778953 -.00000085  00000-0  00000+0 0  9992
2 49811  57.1507 341.9994 0009935 242.6572 117.2421  1.67734424 28504

Śledź FREGAT R/B w czasie rzeczywistym z AllMySat

Download on the App Store